Moody AFB, GA

10:32 AM EST on December 06, 2016 (GMT -0500)
Moody Air Force Base

Weather History for KVAD - February, 2013

Change the Weather History Date:

Saturday, February 23, 2013

  Actual Average Record
Temperature  
Mean Temperature 65 °F -  
Max Temperature 70 °F 66 °F 80 °F (2016)
Min Temperature 59 °F 45 °F 28 °F (1999)
Growing Degree Days 15 (Base 50)    
Moisture  
Dew Point 64 °F    
Average Humidity 99    
Maximum Humidity 100    
Minimum Humidity 83    
Precipitation  
Precipitation 1.69 in - - ()
Sea Level Pressure  
Sea Level Pressure 29.91 in    
Wind  
Wind Speed 7 mph (South)    
Max Wind Speed 15 mph    
Max Gust Speed 24 mph    
Visibility 7 miles    
Events Fog , Rain , Thunderstorm    
Averages and records for this station are not official NWS values.
T = Trace of Precipitation, MM = Missing Value Source: NWS Daily Summary

Daily Weather History Graph

Daily Weather History Graph

Search for Another Location

Airport or City:

Trip Planner

Search our weather history database for the weather conditions in past years. The results will help you decide how hot, cold, wet, or windy it might be!

Date:

Astronomy

Feb. 23, 2013 Rise Set
Actual Time 7:05 AM EST 6:26 PM EST
Civil Twilight 6:41 AM EST 6:51 PM EST
Nautical Twilight 6:13 AM EST 7:19 PM EST
Astronomical Twilight 5:45 AM EST 7:47 PM EST
Moon 4:40 PM EST (2/23) 5:22 AM EST (2/23)
Length of Visible Light 12h 10m
Length of Day
11h 21m
Waxing Gibbous, 95% of the Moon is Illuminated
Feb 23
Waxing Gibbous
Feb 25
Full
Mar 4
Last Quarter
Mar 11
New
Mar 19
First Quarter

Hourly Weather History & Observations

Time (EST) Temp. Dew Point Humidity Pressure Visibility Wind Dir Wind Speed Gust Speed Precip Events Conditions
12:00 AM 64.4 °F 64.4 °F 100% 29.96 in 9.0 mi East 4.6 mph - N/A Rain Light Rain
12:02 AM 64.4 °F 64.4 °F 100% 29.97 in 8.0 mi East 4.6 mph - N/A Rain Light Rain
12:06 AM 64.4 °F 64.4 °F 100% 29.96 in 6.0 mi East 8.1 mph - N/A Rain Light Rain
12:10 AM 64.4 °F 64.4 °F 100% 29.96 in 5.0 mi East 9.2 mph - N/A Rain Light Rain
12:12 AM 64.4 °F 64.4 °F 100% 29.96 in 5.0 mi SE 8.1 mph - N/A Rain Light Rain
12:20 AM 64.4 °F 64.4 °F 100% 29.97 in 6.0 mi ESE 5.8 mph - N/A Rain Light Rain
12:32 AM 64.4 °F 64.4 °F 100% 29.97 in 5.0 mi East 3.5 mph - N/A Rain Light Rain
12:58 AM 64.6 °F 64.6 °F 100% 29.96 in 4.0 mi ESE 10.4 mph - 0.15 in Rain Light Rain
1:06 AM 64.4 °F 64.4 °F 100% 29.94 in 5.0 mi SE 11.5 mph - N/A Rain Light Rain
1:12 AM 64.4 °F 64.4 °F 100% 29.95 in 7.0 mi SE 11.5 mph - N/A Rain Light Rain
1:22 AM 64.4 °F 64.4 °F 100% 29.94 in 6.0 mi SE 10.4 mph 20.7 mph N/A Rain Light Rain
1:30 AM 64.4 °F 64.4 °F 100% 29.94 in 5.0 mi SE 11.5 mph - N/A Rain Light Rain
1:36 AM 64.4 °F 64.4 °F 100% 29.94 in 5.0 mi SSE 8.1 mph - N/A Rain Light Rain
1:40 AM 64.4 °F 64.4 °F 100% 29.95 in 7.0 mi SSE 8.1 mph - N/A Rain Light Rain
1:44 AM 64.4 °F 64.4 °F 100% 29.95 in 10.0 mi SSE 5.8 mph - N/A Rain Light Rain
1:46 AM 64.4 °F 64.4 °F 100% 29.95 in 9.0 mi SSE 5.8 mph - N/A Rain Light Rain
1:58 AM 64.2 °F 64.2 °F 100% 29.96 in 9.0 mi SSE 6.9 mph - 0.12 in Rain Light Rain
2:02 AM 64.4 °F 64.4 °F 100% 29.94 in 9.0 mi SSE 6.9 mph - N/A Rain Light Rain
2:03 AM 64.4 °F 64.4 °F 100% 29.94 in 10.0 mi SSE 6.9 mph - N/A   Overcast
2:06 AM 64.4 °F 64.4 °F 100% 29.94 in 10.0 mi SSE 8.1 mph - N/A Rain Light Rain
2:10 AM 64.4 °F 64.4 °F 100% 29.94 in 9.0 mi South 9.2 mph - N/A Rain Light Rain
2:26 AM 64.4 °F 64.4 °F 100% 29.94 in 5.0 mi South 5.8 mph - N/A Rain Light Rain
2:28 AM 64.4 °F 64.4 °F 100% 29.94 in 4.0 mi South 5.8 mph - N/A Rain Rain
2:36 AM 64.4 °F 64.4 °F 100% 29.93 in 5.0 mi SSE 5.8 mph - N/A Rain Light Rain
2:38 AM 64.4 °F 64.4 °F 100% 29.93 in 7.0 mi SSE 4.6 mph - N/A Rain Light Rain
2:40 AM 64.4 °F 64.4 °F 100% 29.93 in 9.0 mi SSE 5.8 mph - N/A Rain Light Rain
2:41 AM 64.4 °F 64.4 °F 100% 29.93 in 10.0 mi SSE 8.1 mph - N/A   Overcast
2:43 AM 64.4 °F 64.4 °F 100% 29.93 in 10.0 mi SSE 8.1 mph - N/A   Overcast
2:47 AM 64.4 °F 64.4 °F 100% 29.93 in 10.0 mi SSE 9.2 mph - N/A   Overcast
2:51 AM 64.4 °F 64.4 °F 100% 29.92 in 10.0 mi SSE 11.5 mph - N/A   Overcast
2:55 AM 64.4 °F 64.4 °F 100% 29.92 in 10.0 mi SSE 8.1 mph - N/A   Overcast
2:58 AM 63.7 °F 63.7 °F 100% 29.93 in 10.0 mi SSE 8.1 mph - 0.08 in   Overcast
2:59 AM 64.4 °F 64.4 °F 100% 29.92 in 10.0 mi SSE 9.2 mph - N/A Rain Light Rain
3:05 AM 64.4 °F 64.4 °F 100% 29.92 in 10.0 mi SSE 10.4 mph - N/A Rain Light Rain
3:07 AM 64.4 °F 64.4 °F 100% 29.92 in 10.0 mi SSE 8.1 mph - N/A   Overcast
3:11 AM 64.4 °F 64.4 °F 100% 29.92 in 10.0 mi SSE 10.4 mph - N/A   Overcast
3:33 AM 64.4 °F 64.4 °F 100% 29.91 in 10.0 mi SSE 8.1 mph - N/A   Overcast
3:49 AM 64.4 °F 64.4 °F 100% 29.91 in 10.0 mi South 9.2 mph - N/A   Overcast
3:58 AM 63.5 °F 63.5 °F 100% 29.91 in 10.0 mi South 10.4 mph - 0.00 in   Overcast
4:32 AM 64.4 °F 64.4 °F 100% 29.90 in 9.0 mi South 8.1 mph - N/A   Overcast
4:58 AM 64.0 °F 64.0 °F 100% 29.91 in 7.0 mi South 8.1 mph - N/A   Overcast
5:06 AM 64.4 °F 64.4 °F 100% 29.90 in 8.0 mi South 10.4 mph - N/A   Overcast
5:34 AM 64.4 °F 64.4 °F 100% 29.90 in 8.0 mi South 11.5 mph - N/A   Overcast
5:46 AM 64.4 °F 64.4 °F 100% 29.90 in 9.0 mi South 10.4 mph - N/A Rain Light Rain
5:56 AM 64.4 °F 64.4 °F 100% 29.91 in 9.0 mi SSW 9.2 mph - N/A   Overcast
5:59 AM 64.4 °F 64.4 °F 100% 29.91 in 9.0 mi SSW 10.4 mph - 0.00 in   Overcast
6:07 AM 66.2 °F 66.2 °F 100% 29.91 in 10.0 mi SSW 9.2 mph - N/A   Overcast
6:15 AM 66.2 °F 66.2 °F 100% 29.91 in 10.0 mi SSW 9.2 mph - N/A Rain Light Rain
6:34 AM 66.2 °F 66.2 °F 100% 29.92 in 10.0 mi SSW 10.4 mph - N/A   Overcast
6:58 AM 65.8 °F 65.8 °F 100% 29.92 in 10.0 mi South 10.4 mph - 0.00 in   Overcast
7:00 AM 66.2 °F 66.2 °F 100% 29.92 in 10.0 mi South 9.2 mph - N/A   Overcast
7:10 AM 66.2 °F 66.2 °F 100% 29.92 in 10.0 mi South 12.7 mph - N/A   Overcast
7:32 AM 66.2 °F 66.2 °F 100% 29.92 in 10.0 mi South 13.8 mph - N/A   Overcast
7:58 AM 66.6 °F 66.6 °F 100% 29.94 in 10.0 mi SSW 13.8 mph - N/A   Overcast
8:36 AM 66.2 °F 66.2 °F 100% 29.92 in 10.0 mi SSW 12.7 mph 24.2 mph N/A   Overcast
8:58 AM 67.3 °F 67.3 °F 100% 29.94 in 10.0 mi SSW 15.0 mph - N/A   Overcast
9:08 AM 68.0 °F 68.0 °F 100% 29.93 in 10.0 mi SSW 13.8 mph 21.9 mph N/A   Overcast
9:24 AM 68.0 °F 68.0 °F 100% 29.94 in 10.0 mi SSW 12.7 mph - N/A   Overcast
9:42 AM 68.0 °F 68.0 °F 100% 29.94 in 10.0 mi SSW 15.0 mph - N/A   Overcast
9:58 AM 68.2 °F 67.8 °F 99% 29.95 in 10.0 mi SSW 13.8 mph 23.0 mph 0.01 in   Overcast
10:02 AM 68.0 °F 68.0 °F 100% 29.94 in 10.0 mi SSW 13.8 mph - N/A   Overcast
10:58 AM 69.4 °F 67.8 °F 95% 29.96 in 10.0 mi SW 10.4 mph - N/A   Overcast
11:18 AM 69.8 °F 68.0 °F 94% 29.96 in 10.0 mi SW 10.4 mph - N/A   Overcast
11:22 AM 69.8 °F 68.0 °F 94% 29.96 in 10.0 mi SW 9.2 mph - N/A   Overcast
11:54 AM 69.8 °F 68.0 °F 94% 29.96 in 10.0 mi SW 8.1 mph - N/A   Overcast
11:58 AM 70.0 °F 68.2 °F 94% 29.96 in 10.0 mi SW 8.1 mph - N/A   Mostly Cloudy
12:00 PM 69.8 °F 68.0 °F 94% 29.96 in 10.0 mi SW 8.1 mph - N/A   Mostly Cloudy
12:32 PM 69.8 °F 68.0 °F 94% 29.96 in 10.0 mi WNW 6.9 mph - N/A   Mostly Cloudy
12:52 PM 68.0 °F 64.4 °F 88% 29.95 in 10.0 mi NW 9.2 mph - N/A   Overcast
12:54 PM 68.0 °F 64.4 °F 88% 29.95 in 10.0 mi NW 8.1 mph - N/A   Overcast
12:56 PM 68.0 °F 64.4 °F 88% 29.94 in 10.0 mi NNW 9.2 mph - N/A   Overcast
12:59 PM 68.0 °F 62.6 °F 83% 29.95 in 10.0 mi NW 9.2 mph - N/A   Overcast
1:01 PM 68.0 °F 62.6 °F 83% 29.94 in 10.0 mi NW 8.1 mph - N/A   Overcast
1:58 PM 67.3 °F 63.5 °F 88% 29.92 in 10.0 mi NW 4.6 mph - N/A   Overcast
2:11 PM 66.2 °F 64.4 °F 94% 29.89 in 10.0 mi NNW 5.8 mph - N/A Rain Light Rain
2:25 PM 66.2 °F 64.4 °F 94% 29.90 in 9.0 mi WNW 6.9 mph - N/A Rain Light Rain
2:29 PM 66.2 °F 64.4 °F 94% 29.89 in 2.5 mi NNW 6.9 mph - N/A Rain Rain
2:31 PM 66.2 °F 64.4 °F 94% 29.89 in 1.5 mi NNW 5.8 mph - N/A Rain Heavy Rain
2:33 PM 64.4 °F 64.4 °F 100% 29.89 in 1.2 mi NNW 4.6 mph - N/A Rain Heavy Rain
2:35 PM 64.4 °F 64.4 °F 100% 29.88 in 1.0 mi Variable 2.3 mph - N/A Rain Heavy Rain
2:37 PM 64.4 °F 64.4 °F 100% 29.88 in 1.0 mi NE 2.3 mph - N/A Rain Heavy Rain
2:39 PM 64.4 °F 64.4 °F 100% 29.88 in 1.5 mi NE 2.3 mph - N/A Rain Light Rain
2:42 PM 64.4 °F 64.4 °F 100% 29.88 in 2.0 mi North 3.5 mph - N/A Rain Light Rain
2:44 PM 64.4 °F 64.4 °F 100% 29.88 in 4.0 mi North 3.5 mph - N/A Rain Light Rain
2:58 PM 64.9 °F 64.9 °F 100% 29.89 in 9.0 mi North 1.2 mph - 0.17 in Rain Light Rain
3:00 PM 64.4 °F 64.4 °F 100% 29.88 in 1.2 mi Calm Calm - N/A Rain Light Rain
3:02 PM 64.4 °F 64.4 °F 100% 29.88 in 0.8 mi Calm Calm - N/A Rain Heavy Rain
3:10 PM 64.4 °F 64.4 °F 100% 29.87 in 1.2 mi Calm Calm - N/A Rain Light Rain
3:12 PM 64.4 °F 64.4 °F 100% 29.87 in 3.0 mi Calm Calm - N/A Rain Light Rain
3:58 PM 64.9 °F 64.9 °F 100% 29.87 in 9.0 mi ESE 2.3 mph - 0.15 in Rain Light Rain
4:24 PM 64.4 °F 64.4 °F 100% 29.84 in 1.5 mi Variable 1.2 mph - N/A Rain Light Rain
4:26 PM 64.4 °F 64.4 °F 100% 29.84 in 0.8 mi North 3.5 mph - N/A Rain Light Rain
4:28 PM 64.4 °F 64.4 °F 100% 29.84 in 0.5 mi Variable 3.5 mph - N/A Fog , Rain Heavy Rain
4:29 PM 64.4 °F 64.4 °F 100% 29.84 in 0.5 mi ESE 3.5 mph - N/A Fog , Rain Heavy Rain
4:35 PM 64.4 °F 64.4 °F 100% 29.84 in 1.2 mi East 1.2 mph - N/A Rain Light Rain
4:37 PM 64.4 °F 64.4 °F 100% 29.84 in 3.0 mi Calm Calm - N/A Rain Light Rain
4:39 PM 64.4 °F 64.4 °F 100% 29.84 in 9.0 mi ENE 1.2 mph - N/A   Mostly Cloudy
4:46 PM 64.4 °F 64.4 °F 100% 29.84 in 10.0 mi SSE 3.5 mph - N/A Rain Light Rain
4:55 PM 64.4 °F 64.4 °F 100% 29.85 in 6.0 mi SSE 4.6 mph - N/A Rain , Thunderstorm Light Thunderstorms and Rain
4:58 PM 64.9 °F 64.9 °F 100% 29.86 in 6.0 mi SSE 4.6 mph - 0.27 in Rain , Thunderstorm Light Thunderstorms and Rain
5:02 PM 64.4 °F 64.4 °F 100% 29.85 in 3.0 mi South 5.8 mph - N/A Rain , Thunderstorm Thunderstorms and Rain
5:10 PM 64.4 °F 64.4 °F 100% 29.86 in 2.5 mi South 6.9 mph - N/A Rain , Thunderstorm Thunderstorms and Rain
5:11 PM 64.4 °F 64.4 °F 100% 29.86 in 2.5 mi South 5.8 mph - N/A Rain Rain
5:13 PM 64.4 °F 64.4 °F 100% 29.86 in 2.0 mi South 5.8 mph - N/A Rain Heavy Rain
5:21 PM 64.4 °F 64.4 °F 100% 29.86 in 3.0 mi Variable 2.3 mph - N/A Rain , Thunderstorm Light Rain
5:25 PM 64.4 °F 64.4 °F 100% 29.86 in 4.0 mi South 4.6 mph - N/A Rain , Thunderstorm Light Rain
5:31 PM 64.4 °F 64.4 °F 100% 29.86 in 6.0 mi SSE 2.3 mph - N/A Rain Light Rain
5:45 PM 64.4 °F 64.4 °F 100% 29.87 in 7.0 mi NNW 2.3 mph - N/A Rain Light Rain
5:47 PM 64.4 °F 64.4 °F 100% 29.87 in 8.0 mi NW 3.5 mph - N/A Rain Light Rain
5:49 PM 64.4 °F 64.4 °F 100% 29.88 in 7.0 mi NNW 6.9 mph - N/A Rain Light Rain
5:53 PM 64.4 °F 64.4 °F 100% 29.89 in 6.0 mi NNW 10.4 mph - N/A Rain Rain
5:55 PM 64.4 °F 64.4 °F 100% 29.89 in 4.0 mi NNW 10.4 mph - N/A Rain Rain
5:58 PM 64.6 °F 64.6 °F 100% 29.89 in 3.0 mi NW 10.4 mph - 0.19 in Rain Rain
6:00 PM 64.4 °F 64.4 °F 100% 29.89 in 2.5 mi WNW 8.1 mph - N/A Rain Heavy Rain
6:02 PM 64.4 °F 64.4 °F 100% 29.89 in 1.8 mi NW 6.9 mph - N/A Rain Heavy Rain
6:06 PM 64.4 °F 64.4 °F 100% 29.89 in 2.0 mi WNW 8.1 mph - N/A Rain Light Rain
6:10 PM 62.6 °F 62.6 °F 100% 29.89 in 2.5 mi WNW 8.1 mph - N/A Rain Light Rain
6:12 PM 62.6 °F 62.6 °F 100% 29.89 in 4.0 mi NW 11.5 mph - N/A Rain Rain
6:16 PM 62.6 °F 62.6 °F 100% 29.90 in 2.5 mi WNW 10.4 mph 21.9 mph N/A Rain Heavy Rain
6:18 PM 62.6 °F 62.6 °F 100% 29.90 in 2.0 mi WNW 12.7 mph 21.9 mph N/A Rain Heavy Rain
6:20 PM 62.6 °F 62.6 °F 100% 29.90 in 1.8 mi West 12.7 mph 21.9 mph N/A Rain Heavy Rain
6:28 PM 62.6 °F 62.6 °F 100% 29.89 in 2.0 mi West 8.1 mph 18.4 mph N/A Rain Rain
6:32 PM 62.6 °F 62.6 °F 100% 29.88 in 3.0 mi WSW 8.1 mph - N/A Rain Light Rain
6:38 PM 62.6 °F 62.6 °F 100% 29.89 in 6.0 mi SW 8.1 mph - N/A Rain Light Rain
6:40 PM 62.6 °F 62.6 °F 100% 29.90 in 7.0 mi SW 8.1 mph - N/A Rain Light Rain
6:46 PM 62.6 °F 62.6 °F 100% 29.91 in 9.0 mi SW 8.1 mph - N/A Rain Light Rain
6:50 PM 62.6 °F 62.6 °F 100% 29.91 in 9.0 mi SSW 8.1 mph - N/A Rain Light Rain
6:58 PM 61.9 °F 61.9 °F 100% 29.93 in 8.0 mi SW 9.2 mph - 0.34 in Rain Light Rain
7:06 PM 62.6 °F 62.6 °F 100% 29.91 in 7.0 mi SW 8.1 mph - N/A Rain Light Rain
7:24 PM 62.6 °F 62.6 °F 100% 29.92 in 7.0 mi South 8.1 mph - N/A Rain Light Rain
7:58 PM 62.4 °F 62.4 °F 100% 29.94 in 8.0 mi SSW 5.8 mph - 0.11 in Rain Light Rain
8:00 PM 62.6 °F 62.6 °F 100% 29.93 in 10.0 mi SSW 4.6 mph - N/A Rain Light Rain
8:20 PM 62.6 °F 62.6 °F 100% 29.90 in 10.0 mi SE 6.9 mph - N/A   Mostly Cloudy
8:47 PM 60.8 °F 60.8 °F 100% 29.89 in 10.0 mi ESE 4.6 mph - N/A Rain Light Rain
8:58 PM 61.5 °F 61.5 °F 100% 29.89 in 10.0 mi SE 6.9 mph - 0.01 in Rain Light Rain
9:19 PM 60.8 °F 60.8 °F 100% 29.85 in 10.0 mi SE 10.4 mph - N/A   Mostly Cloudy
9:21 PM 60.8 °F 60.8 °F 100% 29.85 in 10.0 mi SE 10.4 mph - N/A Rain Light Rain
9:41 PM 60.8 °F 60.8 °F 100% 29.87 in 9.0 mi SSE 9.2 mph - N/A Rain Light Rain
9:53 PM 60.8 °F 60.8 °F 100% 29.85 in 10.0 mi SE 10.4 mph - N/A Rain Light Rain
9:58 PM 61.2 °F 60.8 °F 99% 29.86 in 10.0 mi SE 10.4 mph - 0.06 in Rain Light Rain
10:26 PM 60.8 °F 60.8 °F 100% 29.86 in 10.0 mi South 5.8 mph - N/A   Scattered Clouds
10:58 PM 60.3 °F 59.9 °F 99% 29.88 in 10.0 mi South 4.6 mph - 0.03 in   Overcast
11:58 PM 59.7 °F 59.7 °F 100% 29.88 in 10.0 mi SSW 5.8 mph - N/A   Mostly Cloudy